Date String (YYYY-MM-DD hh:mm:ss) UTC,Instrument flags,absolute air pressure of the measurement (hPa),sample flow rate (lpm),inlet stack bypass flow (lpm),air temperature of the measurement (°C),ambient temperature measured by the external sensor (°C),aerosol sample conditioner tube jacket temperature (°C),OPC LED temperature (°C),internal box temperature (°C),relative humidity of the measurement (%),span deviation,mass concentration of particles derived from Lorenz-Mie calculation of OPC scattering (μg/m³),mass concentration of particles derived from Lorenz-Mie calculation of OPC scattering (μg/m³),mass concentration of particles derived from Lorenz-Mie calculation of OPC scattering (μg/m³)
DateTimeUTC,F1_M11,P_M11,Q1_M11,Q2_M11,T1_M11,T2_M11,T3_M11,T4_M11,T5_M11,U1_M11,ZSPAN_M11,X0_M11,X2_M11,X1_M11
2024-02-08 12:00:00,SystemResetWarning,0812.9,5.00,000.00,018.4,017.6,000.0,026.9,020.0,13.4,0000.0,0000.55,0000.20,0000.10
2024-02-08 12:01:00,SystemResetWarning,0812.8,5.00,000.00,018.4,017.6,000.0,026.9,020.0,13.6,0000.0,0000.49,0000.18,0000.10
2024-02-08 12:02:00,SystemResetWarning,0812.8,5.00,000.00,018.4,017.6,000.0,026.8,020.0,13.6,0000.0,0000.49,0000.19,0000.09
2024-02-08 12:03:00,SystemResetWarning,0813.0,5.01,000.00,018.3,017.6,000.0,026.8,020.0,13.7,0000.0,0000.45,0000.18,0000.09
2024-02-08 12:04:00,SystemResetWarning,0812.9,5.01,000.00,018.3,017.6,000.0,026.8,020.0,13.8,0000.0,0000.62,0000.20,0000.09
2024-02-08 12:05:00,SystemResetWarning,0812.8,4.99,000.00,018.3,017.6,000.0,026.8,020.0,13.8,0000.0,0000.88,0000.21,0000.09
2024-02-08 12:06:00,SystemResetWarning,0812.8,5.00,000.00,018.3,017.6,000.0,026.8,020.0,13.0,0000.0,0001.87,0000.20,0000.08
2024-02-08 12:07:00,SystemResetWarning,0812.9,5.00,000.00,018.3,017.6,000.0,026.8,020.0,13.0,0000.0,0001.90,0000.21,0000.08
2024-02-08 12:08:00,SystemResetWarning,0813.0,5.00,000.00,018.3,017.6,000.0,026.8,020.0,13.1,0000.0,0001.90,0000.21,0000.09
2024-02-08 12:09:00,SystemResetWarning,0813.0,5.00,000.00,018.3,017.6,000.0,026.8,020.0,13.1,0000.0,0001.88,0000.20,0000.09
2024-02-08 12:10:00,SystemResetWarning,0813.0,5.01,000.00,018.3,017.6,000.0,026.8,020.0,13.1,0000.0,0002.01,0000.20,0000.09
2024-02-08 12:11:00,SystemResetWarning,0813.0,5.00,000.00,018.3,017.6,000.0,026.8,020.0,13.2,0000.0,0002.10,0000.20,0000.08
2024-02-08 12:12:00,SystemResetWarning,0813.0,5.00,000.00,018.3,017.6,000.0,026.8,020.0,13.3,0000.0,0002.19,0000.21,0000.08
2024-02-08 12:13:00,SystemResetWarning,0813.0,5.00,000.00,018.3,017.6,000.0,026.8,020.0,13.4,0000.0,0002.18,0000.20,0000.09
2024-02-08 12:14:00,SystemResetWarning,0813.0,4.98,000.00,018.3,017.6,000.0,026.8,020.0,13.4,0000.0,0002.12,0000.18,0000.09
2024-02-08 12:15:00,SystemResetWarning,0813.0,5.01,000.00,018.3,017.6,000.0,026.8,020.0,13.5,0000.0,0001.89,0000.16,0000.09
2024-02-08 12:16:00,SystemResetWarning,0813.0,5.01,000.00,018.3,017.6,000.0,026.8,020.0,13.4,0000.0,0001.56,0000.16,0000.09
2024-02-08 12:17:00,SystemResetWarning,0813.1,5.00,000.00,018.3,017.6,000.0,026.8,020.0,13.4,0000.0,0000.67,0000.17,0000.10
2024-02-08 12:18:00,SystemResetWarning,0813.2,4.99,000.00,018.3,017.7,000.0,026.8,020.0,13.4,0000.0,0000.76,0000.18,0000.10
2024-02-08 12:19:00,SystemResetWarning,0813.2,4.99,000.00,018.3,017.7,000.0,026.8,020.0,13.4,0000.0,0000.84,0000.20,0000.10
2024-02-08 12:20:00,SystemResetWarning,0813.1,5.00,000.00,018.3,017.7,000.0,026.8,020.0,13.4,0000.0,0000.84,0000.20,0000.10
2024-02-08 12:21:00,SystemResetWarning,0813.2,4.99,000.00,018.3,017.7,000.0,026.8,020.0,13.4,0000.0,0000.72,0000.19,0000.10
2024-02-08 12:22:00,SystemResetWarning,0813.0,5.01,000.00,018.4,017.7,000.0,026.8,020.0,13.3,0000.0,0000.62,0000.19,0000.10
2024-02-08 12:23:00,SystemResetWarning,0813.0,5.01,000.00,018.3,017.6,000.0,026.8,020.0,13.3,0000.0,0000.87,0000.19,0000.10
2024-02-08 12:24:00,SystemResetWarning,0813.0,5.00,000.00,018.3,017.6,000.0,026.8,020.0,13.4,0000.0,0001.23,0000.19,0000.10
2024-02-08 12:25:00,SystemResetWarning,0813.1,5.00,000.00,018.3,017.6,000.0,026.8,020.0,13.4,0000.0,0001.23,0000.19,0000.10
2024-02-08 12:26:00,SystemResetWarning,0813.2,5.00,000.00,018.3,017.6,000.0,026.8,020.0,13.5,0000.0,0001.26,0000.20,0000.10
2024-02-08 12:27:00,SystemResetWarning,0813.1,5.00,000.00,018.4,017.7,000.0,026.8,020.0,13.5,0000.0,0001.22,0000.19,0000.10
2024-02-08 12:28:00,SystemResetWarning,0813.1,4.99,000.00,018.4,017.7,000.0,026.8,020.0,13.4,0000.0,0001.20,0000.18,0000.10
2024-02-08 12:29:00,SystemResetWarning,0813.2,5.00,000.00,018.4,017.7,000.0,026.8,020.0,13.5,0000.0,0001.13,0000.17,0000.10
2024-02-08 12:30:00,SystemResetWarning,0813.1,5.00,000.00,018.4,017.7,000.0,026.8,020.0,13.6,0000.0,0001.16,0000.18,0000.10
2024-02-08 12:31:00,SystemResetWarning,0813.1,5.00,000.00,018.4,017.7,000.0,026.8,020.0,13.5,0000.0,0001.40,0000.20,0000.10
2024-02-08 12:32:00,SystemResetWarning,0813.1,5.00,000.00,018.3,017.7,000.0,026.8,020.0,13.2,0000.0,0001.46,0000.22,0000.10
2024-02-08 12:33:00,SystemResetWarning,0813.2,5.01,000.00,018.3,017.7,000.0,026.8,020.0,13.1,0000.0,0001.47,0000.22,0000.10
2024-02-08 12:34:00,SystemResetWarning,0813.2,5.00,000.00,018.4,017.7,000.0,026.8,020.0,13.3,0000.0,0001.22,0000.21,0000.10
2024-02-08 12:35:00,SystemResetWarning,0813.3,5.00,000.00,018.3,017.7,000.0,026.8,020.0,13.4,0000.0,0000.68,0000.20,0000.10
2024-02-08 12:36:00,SystemResetWarning,0813.3,5.00,000.00,018.3,017.7,000.0,026.8,020.0,13.4,0000.0,0000.76,0000.23,0000.10
2024-02-08 12:37:00,SystemResetWarning,0813.4,5.00,000.00,018.3,017.7,000.0,026.8,020.0,13.5,0000.0,0001.86,0000.26,0000.10
2024-02-08 12:38:00,SystemResetWarning,0813.4,4.99,000.00,018.3,017.7,000.0,026.8,020.0,13.3,0000.0,0002.40,0000.26,0000.10
2024-02-08 12:39:00,SystemResetWarning,0813.5,5.00,000.00,018.4,017.7,000.0,026.8,020.0,13.5,0000.0,0002.41,0000.26,0000.10
2024-02-08 12:40:00,SystemResetWarning,0813.6,5.01,000.00,018.4,017.7,000.0,026.8,020.0,13.2,0000.0,0002.45,0000.28,0000.11
2024-02-08 12:41:00,SystemResetWarning,0813.6,5.01,000.00,018.4,017.7,000.0,026.8,020.0,13.2,0000.0,0002.36,0000.26,0000.11
2024-02-08 12:42:00,SystemResetWarning,0813.6,4.98,000.00,018.4,017.7,000.0,026.8,020.0,13.2,0000.0,0002.21,0000.25,0000.11
2024-02-08 12:43:00,SystemResetWarning,0813.5,5.00,000.00,018.4,017.7,000.0,026.8,020.0,12.9,0000.0,0002.18,0000.24,0000.11
2024-02-08 12:44:00,SystemResetWarning,0813.5,5.01,000.00,018.4,017.7,000.0,026.8,020.0,12.7,0000.0,0002.35,0000.27,0000.11
2024-02-08 12:45:00,SystemResetWarning,0813.5,5.01,000.00,018.4,017.7,000.0,026.8,020.0,12.7,0000.0,0002.37,0000.28,0000.11
2024-02-08 12:46:00,SystemResetWarning,0813.6,4.99,000.00,018.4,017.7,000.0,026.8,020.0,13.2,0000.0,0002.44,0000.29,0000.11
2024-02-08 12:47:00,SystemResetWarning,0813.6,4.98,000.00,018.4,017.7,000.0,026.8,020.0,13.3,0000.0,0002.50,0000.29,0000.11
2024-02-08 12:48:00,SystemResetWarning,0813.5,5.01,000.00,018.4,017.7,000.0,026.8,020.0,12.7,0000.0,0001.33,0000.28,0000.11
2024-02-08 12:49:00,SystemResetWarning,0813.3,5.00,000.00,018.4,017.6,000.0,026.8,020.0,11.9,0000.0,0000.96,0000.29,0000.11
2024-02-08 12:50:00,SystemResetWarning,0813.3,5.01,000.00,018.4,017.6,000.0,026.8,020.0,12.1,0000.0,0000.99,0000.30,0000.11
2024-02-08 12:51:00,SystemResetWarning,0813.4,5.01,000.00,018.4,017.6,000.0,026.9,020.0,12.3,0000.0,0001.00,0000.29,0000.10
2024-02-08 12:52:00,SystemResetWarning,0813.4,5.00,000.00,018.4,017.6,000.0,026.8,020.0,13.1,0000.0,0000.95,0000.29,0000.10
2024-02-08 12:53:00,SystemResetWarning,0813.3,4.99,000.00,018.4,017.6,000.0,026.8,020.0,13.2,0000.0,0000.90,0000.30,0000.10
2024-02-08 12:54:00,SystemResetWarning,0813.4,5.00,000.00,018.4,017.6,000.0,026.8,020.0,13.0,0000.0,0000.87,0000.28,0000.09
2024-02-08 12:55:00,SystemResetWarning,0813.3,5.01,000.00,018.4,017.6,000.0,026.8,020.0,13.2,0000.0,0000.78,0000.26,0000.09
2024-02-08 12:56:00,SystemResetWarning,0813.3,5.00,000.00,018.4,017.6,000.0,026.8,020.0,13.4,0000.0,0000.78,0000.27,0000.09
2024-02-08 12:57:00,SystemResetWarning,0813.3,4.99,000.00,018.4,017.6,000.0,026.8,020.0,13.5,0000.0,0000.76,0000.27,0000.10
2024-02-08 12:58:00,SystemResetWarning,0813.3,5.01,000.00,018.4,017.6,000.0,026.8,020.0,13.7,0000.0,0000.64,0000.25,0000.10
2024-02-08 12:59:00,SystemResetWarning,0813.3,5.01,000.00,018.4,017.5,000.0,026.8,020.0,13.2,0000.0,0000.58,0000.23,0000.10
